| time (UTC) | temp F | wind direction | speed MPH | gust MPH | rain 1hr in | rain 24hr in | rain mn in | humidity % | barometer mb |
| 20260510121032 | 48 | 360 | 0.0 | 4.0 | 0.00 | 0.00 | 0.00 | 49 | 1014.9 |
| 20260510120533 | 48 | 360 | 1.0 | 4.0 | 0.00 | 0.00 | 0.00 | 48 | 1015.0 |
| 20260510120031 | 48 | 132 | 0.0 | 0.0 | 0.00 | 0.00 | 0.00 | 48 | 1014.9 |
| 20260510115528 | 49 | 132 | 0.0 | 0.0 | 0.00 | 0.00 | 0.00 | 46 | 1014.9 |
| 20260510115031 | 49 | 132 | 0.0 | 0.0 | 0.00 | 0.00 | 0.00 | 46 | 1014.8 |
| 20260510114528 | 49 | 360 | 0.0 | 2.0 | 0.00 | 0.00 | 0.00 | 46 | 1014.9 |
| 20260510114030 | 49 | 131 | 0.0 | 3.0 | 0.00 | 0.00 | 0.00 | 46 | 1014.7 |
| 20260510113527 | 50 | 124 | 1.0 | 4.0 | 0.00 | 0.00 | 0.00 | 45 | 1014.7 |
| 20260510113024 | 51 | 138 | 1.0 | 4.0 | 0.00 | 0.00 | 0.00 | 43 | 1014.7 |
| 20260510112523 | 53 | 172 | 0.0 | 0.0 | 0.00 | 0.00 | 0.00 | 39 | 1014.6 |
| 20260510112022 | 54 | 172 | 0.0 | 0.0 | 0.00 | 0.00 | 0.00 | 35 | 1014.5 |
| 20260510111522 | 54 | 172 | 0.0 | 0.0 | 0.00 | 0.00 | 0.00 | 35 | 1014.6 |
| 20260510111021 | 54 | 172 | 0.0 | 0.0 | 0.00 | 0.00 | 0.00 | 35 | 1014.6 |
| 20260510110525 | 54 | 172 | 0.0 | 0.0 | 0.00 | 0.00 | 0.00 | 35 | 1014.6 |
| 20260510110032 | 54 | 172 | 0.0 | 0.0 | 0.00 | 0.00 | 0.00 | 36 | 1014.6 |
| 20260510105521 | 54 | 172 | 0.0 | 0.0 | 0.00 | 0.00 | 0.00 | 36 | 1014.6 |
| 20260510105021 | 54 | 172 | 0.0 | 0.0 | 0.00 | 0.00 | 0.00 | 36 | 1014.6 |
| 20260510104519 | 55 | 172 | 0.0 | 0.0 | 0.00 | 0.00 | 0.00 | 36 | 1014.5 |
| 20260510104018 | 55 | 172 | 0.0 | 0.0 | 0.00 | 0.00 | 0.00 | 36 | 1014.4 |
| 20260510103518 | 55 | 172 | 0.0 | 0.0 | 0.00 | 0.00 | 0.00 | 38 | 1014.6 |
| 20260510103020 | 56 | 172 | 0.0 | 0.0 | 0.00 | 0.00 | 0.00 | 33 | 1014.6 |
| 20260510102518 | 56 | 172 | 0.0 | 0.0 | 0.00 | 0.00 | 0.00 | 33 | 1014.6 |
| 20260510102017 | 56 | 172 | 0.0 | 0.0 | 0.00 | 0.00 | 0.00 | 33 | 1014.5 |
| 20260510101517 | 57 | 172 | 0.0 | 0.0 | 0.00 | 0.00 | 0.00 | 33 | 1014.6 |
| 20260510101016 | 57 | 172 | 0.0 | 1.0 | 0.00 | 0.00 | 0.00 | 31 | 1014.6 |
| 20260510100519 | 57 | 172 | 0.0 | 1.0 | 0.00 | 0.00 | 0.00 | 31 | 1014.6 |
| 20260510100016 | 57 | 172 | 0.0 | 0.0 | 0.00 | 0.00 | 0.00 | 31 | 1014.5 |
| 20260510095515 | 57 | 172 | 0.0 | 0.0 | 0.00 | 0.00 | 0.00 | 31 | 1014.4 |
| 20260510095021 | 57 | 172 | 0.0 | 0.0 | 0.00 | 0.00 | 0.00 | 33 | 1014.4 |
| 20260510094535 | 57 | 172 | 0.0 | 0.0 | 0.00 | 0.00 | 0.00 | 31 | 1014.4 |
| 20260510094013 | 58 | 172 | 0.0 | 0.0 | 0.00 | 0.00 | 0.00 | 31 | 1014.3 |
| 20260510093513 | 57 | 172 | 0.0 | 1.0 | 0.00 | 0.00 | 0.00 | 32 | 1014.3 |
| 20260510093014 | 56 | 172 | 0.0 | 1.0 | 0.00 | 0.00 | 0.00 | 32 | 1014.2 |
| 20260510092514 | 57 | 172 | 0.0 | 1.0 | 0.00 | 0.00 | 0.00 | 32 | 1014.2 |
| 20260510092011 | 57 | 172 | 0.0 | 1.0 | 0.00 | 0.00 | 0.00 | 32 | 1014.2 |
| 20260510091520 | 57 | 172 | 0.0 | 0.0 | 0.00 | 0.00 | 0.00 | 30 | 1014.1 |
| 20260510091011 | 57 | 172 | 0.0 | 0.0 | 0.00 | 0.00 | 0.00 | 30 | 1014.1 |
| 20260510090511 | 58 | 172 | 0.0 | 0.0 | 0.00 | 0.00 | 0.00 | 29 | 1014.1 |
| 20260510090015 | 58 | 172 | 0.0 | 0.0 | 0.00 | 0.00 | 0.00 | 29 | 1014.2 |
| 20260510085510 | 58 | 172 | 0.0 | 0.0 | 0.00 | 0.00 | 0.00 | 30 | 1014.1 |
| 20260510085010 | 58 | 172 | 0.0 | 0.0 | 0.00 | 0.00 | 0.00 | 30 | 1014.1 |
| 20260510084509 | 57 | 172 | 0.0 | 0.0 | 0.00 | 0.00 | 0.00 | 30 | 1014.1 |
| 20260510084009 | 57 | 172 | 0.0 | 0.0 | 0.00 | 0.00 | 0.00 | 30 | 1014.1 |
| 20260510083509 | 57 | 172 | 0.0 | 2.0 | 0.00 | 0.00 | 0.00 | 30 | 1014.0 |
| 20260510083008 | 56 | 172 | 0.0 | 2.0 | 0.00 | 0.00 | 0.00 | 32 | 1014.0 |
| 20260510082509 | 56 | 194 | 0.0 | 1.0 | 0.00 | 0.00 | 0.00 | 33 | 1013.9 |
| 20260510082008 | 55 | 194 | 0.0 | 1.0 | 0.00 | 0.00 | 0.00 | 33 | 1013.9 |
| 20260510081514 | 55 | 194 | 0.0 | 1.0 | 0.00 | 0.00 | 0.00 | 35 | 1013.9 |
| 20260510081007 | 56 | 217 | 0.0 | 1.0 | 0.00 | 0.00 | 0.00 | 36 | 1013.9 |
| 20260510080505 | 57 | 217 | 0.0 | 1.0 | 0.00 | 0.00 | 0.00 | 33 | 1014.0 |
| 20260510080005 | 57 | 222 | 0.0 | 0.0 | 0.00 | 0.00 | 0.00 | 30 | 1013.9 |
| 20260510075604 | 57 | 222 | 0.0 | 0.0 | 0.00 | 0.00 | 0.00 | 30 | 1013.9 |
| 20260510075003 | 58 | 222 | 0.0 | 0.0 | 0.00 | 0.00 | 0.00 | 28 | 1013.9 |
| 20260510074503 | 58 | 222 | 0.0 | 0.0 | 0.00 | 0.00 | 0.00 | 26 | 1013.8 |
| 20260510074002 | 58 | 223 | 0.0 | 0.0 | 0.00 | 0.00 | 0.00 | 26 | 1013.9 |
| 20260510073501 | 57 | 223 | 0.0 | 0.0 | 0.00 | 0.00 | 0.00 | 29 | 1013.6 |
| 20260510073002 | 55 | 223 | 0.0 | 0.0 | 0.00 | 0.00 | 0.00 | 30 | 1013.7 |
| 20260510072601 | 55 | 223 | 0.0 | 1.0 | 0.00 | 0.00 | 0.00 | 30 | 1013.7 |
| 20260510072100 | 55 | 223 | 0.0 | 3.0 | 0.00 | 0.00 | 0.00 | 30 | 1013.7 |
| 20260510071559 | 56 | 223 | 0.0 | 3.0 | 0.00 | 0.00 | 0.00 | 28 | 1013.6 |
| 20260510071057 | 57 | 222 | 1.0 | 3.0 | 0.00 | 0.00 | 0.00 | 27 | 1013.6 |
| 20260510070555 | 58 | 54 | 0.0 | 0.0 | 0.00 | 0.00 | 0.00 | 27 | 1013.4 |
| 20260510070054 | 59 | 57 | 0.0 | 0.0 | 0.00 | 0.00 | 0.00 | 25 | 1013.4 |
| 20260510065557 | 59 | 57 | 0.0 | 0.0 | 0.00 | 0.00 | 0.00 | 25 | 1013.4 |
| 20260510065052 | 59 | 57 | 0.0 | 0.0 | 0.00 | 0.00 | 0.00 | 26 | 1013.3 |
| 20260510064551 | 60 | 57 | 0.0 | 0.0 | 0.00 | 0.00 | 0.00 | 25 | 1013.3 |
| 20260510064051 | 60 | 57 | 0.0 | 0.0 | 0.00 | 0.00 | 0.00 | 24 | 1013.2 |
| 20260510063553 | 60 | 57 | 0.0 | 0.0 | 0.00 | 0.00 | 0.00 | 24 | 1013.2 |
| 20260510063050 | 60 | 57 | 0.0 | 0.0 | 0.00 | 0.00 | 0.00 | 24 | 1013.1 |
| 20260510062550 | 60 | 57 | 0.0 | 0.0 | 0.00 | 0.00 | 0.00 | 25 | 1013.1 |
| 20260510062049 | 60 | 57 | 0.0 | 0.0 | 0.00 | 0.00 | 0.00 | 24 | 1013.1 |
| 20260510061552 | 60 | 57 | 0.0 | 0.0 | 0.00 | 0.00 | 0.00 | 25 | 1013.0 |
| 20260510061048 | 60 | 57 | 0.0 | 0.0 | 0.00 | 0.00 | 0.00 | 24 | 1012.9 |
| 20260510060548 | 60 | 57 | 0.0 | 0.0 | 0.00 | 0.00 | 0.00 | 25 | 1012.9 |
| 20260510060047 | 60 | 57 | 0.0 | 0.0 | 0.00 | 0.00 | 0.00 | 25 | 1012.8 |
| 20260510055545 | 60 | 57 | 0.0 | 0.0 | 0.00 | 0.00 | 0.00 | 25 | 1012.8 |
| 20260510055045 | 60 | 57 | 0.0 | 0.0 | 0.00 | 0.00 | 0.00 | 27 | 1012.8 |
| 20260510054646 | 60 | 57 | 0.0 | 0.0 | 0.00 | 0.00 | 0.00 | 26 | 1012.8 |
| 20260510054045 | 60 | 57 | 0.0 | 0.0 | 0.00 | 0.00 | 0.00 | 27 | 1012.8 |
| 20260510053544 | 60 | 57 | 0.0 | 0.0 | 0.00 | 0.00 | 0.00 | 27 | 1012.8 |
| 20260510053057 | 60 | 57 | 0.0 | 0.0 | 0.00 | 0.00 | 0.00 | 27 | 1012.7 |
| 20260510052545 | 59 | 57 | 0.0 | 0.0 | 0.00 | 0.00 | 0.00 | 29 | 1012.7 |
| 20260510052045 | 58 | 57 | 0.0 | 0.0 | 0.00 | 0.00 | 0.00 | 31 | 1012.6 |
| 20260510051548 | 59 | 57 | 0.0 | 0.0 | 0.00 | 0.00 | 0.00 | 29 | 1012.6 |
| 20260510051044 | 60 | 57 | 0.0 | 0.0 | 0.00 | 0.00 | 0.00 | 27 | 1012.5 |
| 20260510050544 | 60 | 57 | 0.0 | 0.0 | 0.00 | 0.00 | 0.00 | 28 | 1012.6 |
| 20260510050044 | 60 | 57 | 0.0 | 0.0 | 0.00 | 0.00 | 0.00 | 30 | 1012.5 |
| 20260510045544 | 60 | 57 | 0.0 | 0.0 | 0.00 | 0.00 | 0.00 | 30 | 1012.5 |
| 20260510045042 | 61 | 57 | 0.0 | 0.0 | 0.00 | 0.00 | 0.00 | 29 | 1012.4 |
| 20260510044542 | 61 | 57 | 0.0 | 0.0 | 0.00 | 0.00 | 0.00 | 27 | 1012.4 |
| 20260510044044 | 61 | 57 | 0.0 | 0.0 | 0.00 | 0.00 | 0.00 | 28 | 1012.4 |
| 20260510043542 | 61 | 57 | 0.0 | 0.0 | 0.00 | 0.00 | 0.00 | 26 | 1012.4 |
| 20260510043053 | 61 | 57 | 0.0 | 0.0 | 0.00 | 0.00 | 0.00 | 28 | 1012.2 |
| 20260510042542 | 60 | 57 | 0.0 | 0.0 | 0.00 | 0.00 | 0.00 | 28 | 1012.2 |
| 20260510042050 | 60 | 57 | 0.0 | 0.0 | 0.00 | 0.00 | 0.00 | 28 | 1012.2 |
| 20260510041541 | 60 | 57 | 0.0 | 0.0 | 0.00 | 0.00 | 0.00 | 27 | 1012.1 |
| 20260510041041 | 60 | 57 | 0.0 | 0.0 | 0.00 | 0.00 | 0.00 | 27 | 1012.1 |
| 20260510040541 | 60 | 57 | 0.0 | 0.0 | 0.00 | 0.00 | 0.00 | 27 | 1012.0 |
| 20260510040043 | 60 | 57 | 0.0 | 2.0 | 0.00 | 0.00 | 0.00 | 27 | 1011.9 |
| 20260510035540 | 61 | 57 | 0.0 | 4.0 | 0.00 | 0.00 | 0.00 | 26 | 1011.8 |
| 20260510035040 | 62 | 56 | 1.0 | 4.0 | 0.00 | 0.00 | 0.00 | 25 | 1011.8 |
| 20260510034542 | 62 | 188 | 0.0 | 0.0 | 0.00 | 0.00 | 0.00 | 24 | 1011.8 |
| 20260510034041 | 64 | 188 | 0.0 | 0.0 | 0.00 | 0.00 | 0.00 | 24 | 1011.7 |
| 20260510033540 | 64 | 188 | 0.0 | 0.0 | 0.00 | 0.00 | 0.00 | 22 | 1011.5 |
| 20260510033039 | 64 | 188 | 0.0 | 0.0 | 0.00 | 0.00 | 0.00 | 22 | 1011.4 |
| 20260510032539 | 64 | 188 | 0.0 | 2.0 | 0.00 | 0.00 | 0.00 | 23 | 1011.3 |
| 20260510032039 | 64 | 188 | 0.0 | 2.0 | 0.00 | 0.00 | 0.00 | 23 | 1011.3 |
| 20260510031546 | 64 | 200 | 0.0 | 2.0 | 0.00 | 0.00 | 0.00 | 23 | 1011.2 |
| 20260510031039 | 64 | 200 | 0.0 | 1.0 | 0.00 | 0.00 | 0.00 | 22 | 1011.1 |
| 20260510030542 | 64 | 202 | 0.0 | 2.0 | 0.00 | 0.00 | 0.00 | 23 | 1011.2 |
| 20260510030039 | 65 | 200 | 0.0 | 2.0 | 0.00 | 0.00 | 0.00 | 22 | 1010.8 |
| 20260510025538 | 65 | 201 | 1.0 | 2.0 | 0.00 | 0.00 | 0.00 | 22 | 1010.8 |
| 20260510025038 | 66 | 199 | 1.0 | 2.0 | 0.00 | 0.00 | 0.00 | 22 | 1010.7 |
| 20260510024540 | 66 | 219 | 1.0 | 2.0 | 0.00 | 0.00 | 0.00 | 21 | 1010.6 |
| 20260510024037 | 67 | 221 | 1.0 | 2.0 | 0.00 | 0.00 | 0.00 | 21 | 1010.6 |
| 20260510023537 | 68 | 250 | 1.0 | 2.0 | 0.00 | 0.00 | 0.00 | 20 | 1010.5 |
| 20260510023037 | 68 | 261 | 0.0 | 2.0 | 0.00 | 0.00 | 0.00 | 17 | 1010.6 |
| 20260510022537 | 68 | 271 | 0.0 | 1.0 | 0.00 | 0.00 | 0.00 | 17 | 1010.5 |
| 20260510022038 | 69 | 271 | 0.0 | 2.0 | 0.00 | 0.00 | 0.00 | 16 | 1010.4 |
| 20260510021544 | 69 | 271 | 1.0 | 3.0 | 0.00 | 0.00 | 0.00 | 16 | 1010.4 |
| 20260510021036 | 69 | 285 | 1.0 | 2.0 | 0.00 | 0.00 | 0.00 | 16 | 1010.4 |
| 20260510020535 | 69 | 288 | 0.0 | 2.0 | 0.00 | 0.00 | 0.00 | 16 | 1010.4 |
| 20260510020035 | 69 | 291 | 0.0 | 3.0 | 0.00 | 0.00 | 0.00 | 16 | 1010.5 |
| 20260510015534 | 70 | 291 | 2.0 | 3.0 | 0.00 | 0.00 | 0.00 | 15 | 1010.4 |
| 20260510015034 | 70 | 317 | 1.0 | 4.0 | 0.00 | 0.00 | 0.00 | 15 | 1010.4 |
| 20260510014535 | 71 | 323 | 1.0 | 4.0 | 0.00 | 0.00 | 0.00 | 14 | 1010.5 |
| 20260510014033 | 71 | 9 | 3.0 | 6.0 | 0.00 | 0.00 | 0.00 | 14 | 1010.5 |
| 20260510013532 | 71 | 351 | 2.0 | 8.0 | 0.00 | 0.00 | 0.00 | 15 | 1010.5 |
| 20260510013037 | 71 | 44 | 3.0 | 8.0 | 0.00 | 0.00 | 0.00 | 15 | 1010.5 |
| 20260510012532 | 71 | 67 | 1.0 | 4.0 | 0.00 | 0.00 | 0.00 | 15 | 1010.5 |
| 20260510012032 | 71 | 80 | 1.0 | 4.0 | 0.00 | 0.00 | 0.00 | 14 | 1010.6 |
| 20260510011541 | 71 | 94 | 1.0 | 7.0 | 0.00 | 0.00 | 0.00 | 15 | 1010.5 |
| 20260510011031 | 72 | 54 | 3.0 | 11.0 | 0.00 | 0.00 | 0.00 | 14 | 1010.5 |
| 20260510010530 | 72 | 46 | 3.0 | 11.0 | 0.00 | 0.00 | 0.00 | 14 | 1010.5 |
| 20260510010030 | 72 | 34 | 2.0 | 5.0 | 0.00 | 0.00 | 0.00 | 16 | 1010.5 |
| 20260510005529 | 72 | 49 | 1.0 | 6.0 | 0.00 | 0.00 | 0.00 | 14 | 1010.5 |
| 20260510005028 | 72 | 324 | 3.0 | 6.0 | 0.00 | 0.00 | 0.00 | 15 | 1010.4 |
| 20260510004532 | 72 | 61 | 2.0 | 6.0 | 0.00 | 0.00 | 0.00 | 15 | 1010.6 |
| 20260510004032 | 72 | 39 | 3.0 | 6.0 | 0.00 | 0.00 | 0.00 | 15 | 1010.4 |
| 20260510003529 | 72 | 88 | 0.0 | 6.0 | 0.00 | 0.00 | 0.00 | 14 | 1010.4 |
| 20260510003029 | 72 | 35 | 2.0 | 8.0 | 0.00 | 0.00 | 0.00 | 14 | 1010.6 |
| 20260510002531 | 72 | 23 | 3.0 | 8.0 | 0.00 | 0.00 | 0.00 | 15 | 1010.6 |
| 20260510002028 | 72 | 310 | 3.0 | 11.0 | 0.00 | 0.00 | 0.00 | 16 | 1010.7 |
| 20260510001528 | 73 | 323 | 7.0 | 11.0 | 0.00 | 0.00 | 0.00 | 15 | 1010.6 |
| 20260510001028 | 72 | 244 | 3.0 | 9.0 | 0.00 | 0.00 | 0.00 | 19 | 1010.7 |
| 20260510000628 | 72 | 302 | 4.0 | 8.0 | 0.00 | 0.00 | 0.00 | 17 | 1010.8 |
| 20260510000037 | 73 | 26 | 3.0 | 9.0 | 0.00 | 0.00 | 0.00 | 14 | 1010.8 |
| 20260509235527 | 73 | 5 | 5.0 | 10.0 | 0.00 | 0.00 | 0.00 | 14 | 1010.8 |
| 20260509235027 | 73 | 11 | 5.0 | 12.0 | 0.00 | 0.00 | 0.00 | 16 | 1010.8 |
| 20260509234526 | 73 | 28 | 5.0 | 10.0 | 0.00 | 0.00 | 0.00 | 15 | 1010.8 |
| 20260509234030 | 73 | 336 | 4.0 | 11.0 | 0.00 | 0.00 | 0.00 | 16 | 1010.8 |
| 20260509233526 | 73 | 326 | 5.0 | 11.0 | 0.00 | 0.00 | 0.00 | 15 | 1010.8 |
| 20260509233025 | 74 | 290 | 7.0 | 10.0 | 0.00 | 0.00 | 0.00 | 16 | 1010.9 |
| 20260509232525 | 74 | 308 | 3.0 | 12.0 | 0.00 | 0.00 | 0.00 | 17 | 1010.9 |
| 20260509232025 | 73 | 254 | 3.0 | 12.0 | 0.00 | 0.00 | 0.00 | 16 | 1010.9 |
| 20260509231525 | 73 | 300 | 7.0 | 12.0 | 0.00 | 0.00 | 0.00 | 17 | 1011.0 |
| 20260509231024 | 73 | 287 | 4.0 | 10.0 | 0.00 | 0.00 | 0.00 | 15 | 1011.1 |
| 20260509230524 | 73 | 315 | 2.0 | 12.0 | 0.00 | 0.00 | 0.00 | 15 | 1011.1 |
| 20260509230024 | 74 | 332 | 5.0 | 12.0 | 0.00 | 0.00 | 0.00 | 16 | 1011.3 |
| 20260509225524 | 73 | 308 | 4.0 | 10.0 | 0.00 | 0.00 | 0.00 | 15 | 1011.2 |
| 20260509225023 | 73 | 259 | 3.0 | 13.0 | 0.00 | 0.00 | 0.00 | 15 | 1011.2 |
| 20260509224523 | 73 | 322 | 8.0 | 13.0 | 0.00 | 0.00 | 0.00 | 15 | 1011.2 |
| 20260509224023 | 73 | 274 | 6.0 | 13.0 | 0.00 | 0.00 | 0.00 | 14 | 1011.2 |
| 20260509223524 | 73 | 322 | 8.0 | 14.0 | 0.00 | 0.00 | 0.00 | 15 | 1011.2 |
| 20260509223023 | 73 | 301 | 4.0 | 14.0 | 0.00 | 0.00 | 0.00 | 15 | 1011.2 |
| 20260509222522 | 73 | 338 | 3.0 | 12.0 | 0.00 | 0.00 | 0.00 | 14 | 1011.2 |
| 20260509222022 | 73 | 318 | 6.0 | 14.0 | 0.00 | 0.00 | 0.00 | 14 | 1011.4 |
| 20260509221522 | 73 | 327 | 7.0 | 14.0 | 0.00 | 0.00 | 0.00 | 13 | 1011.4 |
| 20260509221021 | 73 | 308 | 9.0 | 15.0 | 0.00 | 0.00 | 0.00 | 14 | 1011.4 |
| 20260509220520 | 73 | 329 | 9.0 | 15.0 | 0.00 | 0.00 | 0.00 | 18 | 1011.4 |
| 20260509220022 | 72 | 350 | 8.0 | 15.0 | 0.00 | 0.00 | 0.00 | 18 | 1011.3 |
| 20260509215519 | 73 | 323 | 8.0 | 15.0 | 0.00 | 0.00 | 0.00 | 18 | 1011.5 |
| 20260509215019 | 72 | 294 | 5.0 | 14.0 | 0.00 | 0.00 | 0.00 | 19 | 1011.7 |
| 20260509214518 | 72 | 305 | 7.0 | 16.0 | 0.00 | 0.00 | 0.00 | 16 | 1011.7 |
| 20260509214018 | 73 | 343 | 5.0 | 16.0 | 0.00 | 0.00 | 0.00 | 17 | 1011.7 |
| 20260509213518 | 72 | 309 | 6.0 | 16.0 | 0.00 | 0.00 | 0.00 | 17 | 1011.7 |
| 20260509213026 | 72 | 302 | 8.0 | 17.0 | 0.00 | 0.00 | 0.00 | 17 | 1011.7 |
| 20260509212519 | 72 | 337 | 11.0 | 17.0 | 0.00 | 0.00 | 0.00 | 18 | 1011.6 |
| 20260509212018 | 72 | 342 | 5.0 | 16.0 | 0.00 | 0.00 | 0.00 | 18 | 1011.5 |
| 20260509211516 | 72 | 308 | 8.0 | 16.0 | 0.00 | 0.00 | 0.00 | 17 | 1011.5 |
| 20260509211016 | 72 | 9 | 6.0 | 16.0 | 0.00 | 0.00 | 0.00 | 18 | 1011.5 |
| 20260509210516 | 72 | 314 | 9.0 | 16.0 | 0.00 | 0.00 | 0.00 | 17 | 1011.5 |
| 20260509210016 | 72 | 316 | 7.0 | 18.0 | 0.00 | 0.00 | 0.00 | 20 | 1011.5 |
| 20260509205514 | 72 | 319 | 11.0 | 18.0 | 0.00 | 0.00 | 0.00 | 19 | 1011.6 |
| 20260509205014 | 72 | 341 | 7.0 | 13.0 | 0.00 | 0.00 | 0.00 | 22 | 1011.5 |
| 20260509204514 | 72 | 307 | 8.0 | 13.0 | 0.00 | 0.00 | 0.00 | 21 | 1011.7 |
| 20260509204013 | 72 | 329 | 7.0 | 16.0 | 0.00 | 0.00 | 0.00 | 24 | 1011.6 |
| 20260509203514 | 72 | 346 | 7.0 | 16.0 | 0.00 | 0.00 | 0.00 | 22 | 1011.6 |
| 20260509203016 | 72 | 313 | 8.0 | 15.0 | 0.00 | 0.00 | 0.00 | 21 | 1011.7 |
| 20260509202513 | 71 | 304 | 10.0 | 15.0 | 0.00 | 0.00 | 0.00 | 24 | 1011.8 |
| 20260509202013 | 71 | 311 | 9.0 | 16.0 | 0.00 | 0.00 | 0.00 | 22 | 1011.6 |
| 20260509201513 | 72 | 330 | 10.0 | 16.0 | 0.00 | 0.00 | 0.00 | 21 | 1011.8 |
| 20260509201014 | 71 | 305 | 10.0 | 14.0 | 0.00 | 0.00 | 0.00 | 19 | 1011.8 |
| 20260509200513 | 71 | 319 | 7.0 | 13.0 | 0.00 | 0.00 | 0.00 | 20 | 1011.8 |
| 20260509200012 | 72 | 297 | 6.0 | 16.0 | 0.00 | 0.00 | 0.00 | 20 | 1011.8 |
| 20260509195512 | 72 | 333 | 9.0 | 16.0 | 0.00 | 0.00 | 0.00 | 24 | 1011.8 |
| 20260509195009 | 71 | 300 | 9.0 | 14.0 | 0.00 | 0.00 | 0.00 | 22 | 1011.9 |
| 20260509194509 | 71 | 317 | 8.0 | 14.0 | 0.00 | 0.00 | 0.00 | 23 | 1012.0 |
| 20260509194011 | 70 | 270 | 6.0 | 14.0 | 0.00 | 0.00 | 0.00 | 26 | 1011.9 |
| 20260509193509 | 70 | 260 | 6.0 | 16.0 | 0.00 | 0.00 | 0.00 | 25 | 1011.9 |
| 20260509193016 | 71 | 302 | 6.0 | 16.0 | 0.00 | 0.00 | 0.00 | 27 | 1011.9 |
| 20260509192507 | 71 | 298 | 9.0 | 17.0 | 0.00 | 0.00 | 0.00 | 26 | 1012.0 |
| 20260509192007 | 71 | 317 | 8.0 | 17.0 | 0.00 | 0.00 | 0.00 | 25 | 1012.0 |
| 20260509191506 | 70 | 308 | 3.0 | 15.0 | 0.00 | 0.00 | 0.00 | 28 | 1012.1 |
| 20260509191006 | 70 | 306 | 11.0 | 15.0 | 0.00 | 0.00 | 0.00 | 25 | 1012.2 |
| 20260509190512 | 70 | 318 | 8.0 | 13.0 | 0.00 | 0.00 | 0.00 | 27 | 1012.2 |
| 20260509190007 | 70 | 317 | 6.0 | 16.0 | 0.00 | 0.00 | 0.00 | 25 | 1012.2 |
| 20260509185504 | 70 | 288 | 10.0 | 16.0 | 0.00 | 0.00 | 0.00 | 27 | 1012.2 |
| 20260509185004 | 70 | 308 | 6.0 | 18.0 | 0.00 | 0.00 | 0.00 | 25 | 1012.3 |
| 20260509184512 | 70 | 299 | 11.0 | 18.0 | 0.00 | 0.00 | 0.00 | 24 | 1012.4 |
| 20260509184002 | 70 | 317 | 6.0 | 16.0 | 0.00 | 0.00 | 0.00 | 28 | 1012.4 |
| 20260509183502 | 70 | 303 | 8.0 | 16.0 | 0.00 | 0.00 | 0.00 | 27 | 1012.4 |
| 20260509183004 | 69 | 286 | 6.0 | 16.0 | 0.00 | 0.00 | 0.00 | 28 | 1012.4 |
| 20260509182504 | 69 | 284 | 9.0 | 16.0 | 0.00 | 0.00 | 0.00 | 27 | 1012.4 |
| 20260509182001 | 69 | 312 | 7.0 | 17.0 | 0.00 | 0.00 | 0.00 | 27 | 1012.4 |
| 20260509181502 | 69 | 315 | 9.0 | 17.0 | 0.00 | 0.00 | 0.00 | 28 | 1012.4 |
| 20260509181001 | 70 | 317 | 10.0 | 15.0 | 0.00 | 0.00 | 0.00 | 25 | 1012.4 |
| 20260509180601 | 69 | 267 | 8.0 | 14.0 | 0.00 | 0.00 | 0.00 | 28 | 1012.3 |
| 20260509180106 | 69 | 287 | 7.0 | 14.0 | 0.00 | 0.00 | 0.00 | 25 | 1012.4 |
| 20260509175559 | 69 | 39 | 3.0 | 10.0 | 0.00 | 0.00 | 0.00 | 26 | 1012.3 |
| 20260509175100 | 69 | 302 | 5.0 | 13.0 | 0.00 | 0.00 | 0.00 | 26 | 1012.4 |
| 20260509174621 | 69 | 315 | 8.0 | 15.0 | 0.00 | 0.00 | 0.00 | 25 | 1012.4 |
| 20260509174059 | 68 | 265 | 8.0 | 15.0 | 0.00 | 0.00 | 0.00 | 27 | 1012.4 |
| 20260509173557 | 69 | 294 | 5.0 | 11.0 | 0.00 | 0.00 | 0.00 | 23 | 1012.5 |
| 20260509173100 | 70 | 335 | 7.0 | 14.0 | 0.00 | 0.00 | 0.00 | 23 | 1012.4 |
| 20260509172559 | 69 | 342 | 2.0 | 14.0 | 0.00 | 0.00 | 0.00 | 23 | 1012.4 |
| 20260509172055 | 68 | 314 | 4.0 | 14.0 | 0.00 | 0.00 | 0.00 | 21 | 1012.3 |
| 20260509171558 | 69 | 312 | 8.0 | 14.0 | 0.00 | 0.00 | 0.00 | 24 | 1012.4 |
| 20260509171055 | 69 | 324 | 6.0 | 14.0 | 0.00 | 0.00 | 0.00 | 24 | 1012.4 |
| 20260509170555 | 69 | 21 | 6.0 | 14.0 | 0.00 | 0.00 | 0.00 | 24 | 1012.3 |
| 20260509170059 | 69 | 327 | 6.0 | 15.0 | 0.00 | 0.00 | 0.00 | 25 | 1012.3 |
| 20260509165552 | 69 | 323 | 6.0 | 15.0 | 0.00 | 0.00 | 0.00 | 24 | 1012.3 |
| 20260509165052 | 69 | 43 | 9.0 | 14.0 | 0.00 | 0.00 | 0.00 | 25 | 1012.4 |
| 20260509164551 | 69 | 27 | 4.0 | 14.0 | 0.00 | 0.00 | 0.00 | 25 | 1012.3 |
| 20260509164050 | 68 | 343 | 7.0 | 13.0 | 0.00 | 0.00 | 0.00 | 26 | 1012.3 |
| 20260509163548 | 68 | 334 | 5.0 | 13.0 | 0.00 | 0.00 | 0.00 | 26 | 1012.3 |
| 20260509163047 | 68 | 35 | 6.0 | 10.0 | 0.00 | 0.00 | 0.00 | 28 | 1012.4 |
| 20260509162547 | 67 | 336 | 5.0 | 13.0 | 0.00 | 0.00 | 0.00 | 28 | 1012.4 |
| 20260509162047 | 67 | 17 | 6.0 | 13.0 | 0.00 | 0.00 | 0.00 | 27 | 1012.3 |
| 20260509161546 | 67 | 324 | 6.0 | 12.0 | 0.00 | 0.00 | 0.00 | 26 | 1012.3 |
| 20260509161044 | 67 | 40 | 7.0 | 12.0 | 0.00 | 0.00 | 0.00 | 27 | 1012.3 |
| 20260509160543 | 67 | 26 | 7.0 | 12.0 | 0.00 | 0.00 | 0.00 | 26 | 1012.3 |
| 20260509160043 | 66 | 345 | 5.0 | 12.0 | 0.00 | 0.00 | 0.00 | 30 | 1012.3 |
| 20260509155541 | 66 | 355 | 7.0 | 12.0 | 0.00 | 0.00 | 0.00 | 28 | 1012.4 |
| 20260509155040 | 66 | 17 | 7.0 | 12.0 | 0.00 | 0.00 | 0.00 | 29 | 1012.4 |
| 20260509154539 | 65 | 19 | 8.0 | 12.0 | 0.00 | 0.00 | 0.00 | 29 | 1012.4 |
| 20260509154039 | 64 | 360 | 7.0 | 13.0 | 0.00 | 0.00 | 0.00 | 30 | 1012.3 |
| 20260509153538 | 65 | 336 | 8.0 | 13.0 | 0.00 | 0.00 | 0.00 | 28 | 1012.3 |
| 20260509153051 | 65 | 19 | 7.0 | 13.0 | 0.00 | 0.00 | 0.00 | 29 | 1012.3 |
| 20260509152541 | 65 | 343 | 5.0 | 13.0 | 0.00 | 0.00 | 0.00 | 29 | 1012.2 |
| 20260509152036 | 65 | 36 | 7.0 | 11.0 | 0.00 | 0.00 | 0.00 | 31 | 1012.3 |
| 20260509151534 | 64 | 319 | 6.0 | 11.0 | 0.00 | 0.00 | 0.00 | 31 | 1012.2 |
| 20260509151033 | 63 | 320 | 6.0 | 11.0 | 0.00 | 0.00 | 0.00 | 33 | 1012.2 |
| 20260509150531 | 63 | 312 | 6.0 | 11.0 | 0.00 | 0.00 | 0.00 | 32 | 1012.2 |
| 20260509150031 | 63 | 259 | 3.0 | 8.0 | 0.00 | 0.00 | 0.00 | 35 | 1012.3 |
| 20260509145529 | 63 | 297 | 2.0 | 6.0 | 0.00 | 0.00 | 0.00 | 33 | 1012.1 |
| 20260509145029 | 62 | 328 | 3.0 | 8.0 | 0.00 | 0.00 | 0.00 | 36 | 1012.1 |
| 20260509144531 | 62 | 307 | 4.0 | 9.0 | 0.00 | 0.00 | 0.00 | 35 | 1012.0 |
| 20260509144026 | 61 | 270 | 4.0 | 9.0 | 0.00 | 0.00 | 0.00 | 36 | 1012.1 |
| 20260509143525 | 61 | 303 | 3.0 | 8.0 | 0.00 | 0.00 | 0.00 | 39 | 1012.1 |
| 20260509143024 | 60 | 250 | 1.0 | 8.0 | 0.00 | 0.00 | 0.00 | 39 | 1012.0 |
| 20260509142528 | 60 | 257 | 3.0 | 7.0 | 0.00 | 0.00 | 0.00 | 40 | 1012.1 |
| 20260509142025 | 59 | 269 | 3.0 | 7.0 | 0.00 | 0.00 | 0.00 | 41 | 1012.1 |
| 20260509141523 | 60 | 267 | 2.0 | 6.0 | 0.00 | 0.00 | 0.00 | 39 | 1012.1 |
| 20260509141022 | 59 | 261 | 1.0 | 5.0 | 0.00 | 0.00 | 0.00 | 38 | 1012.1 |
| 20260509140521 | 58 | 261 | 0.0 | 6.0 | 0.00 | 0.00 | 0.00 | 42 | 1012.1 |
| 20260509140020 | 58 | 259 | 2.0 | 6.0 | 0.00 | 0.00 | 0.00 | 43 | 1012.1 |
| 20260509135521 | 57 | 249 | 0.0 | 3.0 | 0.00 | 0.00 | 0.00 | 40 | 1012.0 |
| 20260509135018 | 57 | 249 | 1.0 | 4.0 | 0.00 | 0.00 | 0.00 | 41 | 1012.0 |
| 20260509134517 | 56 | 248 | 0.0 | 4.0 | 0.00 | 0.00 | 0.00 | 42 | 1011.9 |
| 20260509134116 | 56 | 247 | 2.0 | 4.0 | 0.00 | 0.00 | 0.00 | 46 | 1011.8 |
| 20260509133515 | 56 | 250 | 1.0 | 4.0 | 0.00 | 0.00 | 0.00 | 44 | 1011.8 |
| 20260509133014 | 56 | 252 | 2.0 | 3.0 | 0.00 | 0.00 | 0.00 | 45 | 1011.8 |
| 20260509132515 | 57 | 234 | 0.0 | 3.0 | 0.00 | 0.00 | 0.00 | 43 | 1011.6 |
| 20260509132012 | 57 | 234 | 0.0 | 1.0 | 0.00 | 0.00 | 0.00 | 41 | 1011.6 |
| 20260509131514 | 57 | 234 | 0.0 | 3.0 | 0.00 | 0.00 | 0.00 | 42 | 1011.6 |
| 20260509131013 | 56 | 235 | 0.0 | 3.0 | 0.00 | 0.00 | 0.00 | 42 | 1011.5 |
| 20260509130511 | 55 | 360 | 0.0 | 1.0 | 0.00 | 0.00 | 0.00 | 48 | 1011.4 |
| 20260509130026 | 54 | 234 | 0.0 | 1.0 | 0.00 | 0.00 | 0.00 | 46 | 1011.4 |
| 20260509125509 | 54 | 236 | 0.0 | 0.0 | 0.00 | 0.00 | 0.00 | 44 | 1011.3 |
| 20260509125009 | 53 | 236 | 0.0 | 0.0 | 0.00 | 0.00 | 0.00 | 46 | 1011.3 |
| 20260509124508 | 53 | 236 | 0.0 | 0.0 | 0.00 | 0.00 | 0.00 | 45 | 1011.4 |
| 20260509124009 | 54 | 236 | 0.0 | 0.0 | 0.00 | 0.00 | 0.00 | 46 | 1011.3 |
| 20260509123507 | 55 | 236 | 0.0 | 2.0 | 0.00 | 0.00 | 0.00 | 43 | 1011.2 |
| 20260509123006 | 56 | 236 | 0.0 | 2.0 | 0.00 | 0.00 | 0.00 | 40 | 1011.1 |
| 20260509122505 | 56 | 236 | 0.0 | 3.0 | 0.00 | 0.00 | 0.00 | 46 | 1011.1 |
| 20260509122005 | 56 | 242 | 0.0 | 2.0 | 0.00 | 0.00 | 0.00 | 40 | 1011.0 |
| 20260509121510 | 55 | 242 | 0.0 | 1.0 | 0.00 | 0.00 | 0.00 | 43 | 1011.1 |